Back to catalog

STARLINK-32565

AliveCommunicationsVLEO
NORAD 62182·PAYLOAD·🇺🇸 United States

Launched Nov 30, 2024 from Vandenberg Space Force Base

Loading…

Next Passes (next 24 hours)

TLE

FreshSource: CelesTrak SupGP

Epoch: Sep 14, 2026, 20:42 UTC

1 62182C 24225V   26257.86298611  .00071892  00000+0  60255-2 0  2570
2 62182  70.0018  47.2890 0002502 272.7802 180.4861 14.98291333    16

Track STARLINK-32565 in real time with AllMySat

Download on the App Store